Regional Weather Roundup
Issued by NWS

Home | Current Version | Previous Version | Text Only | Print | Product List | Glossary On
Versions: 1 2 3 4 5 6 7 8 9 10 11 12 13 14 15 16 17 18 19 20 21 22 23 24 25 26 27 28 29 30 31 32 33 34 35 36 37 38 39 40 41 42 43 44 45 46 47 48 49 50
000
ASUS43 KDMX 170907
RWRIA

WEATHER ROUNDUP FOR IOWA
NATIONAL WEATHER SERVICE DES MOINES IA
400 AM CDT FRI APR 17 2015

NOTE: "FAIR" INDICATES FEW OR NO CLOUDS BELOW 12,000 FEET WITH NO
SIGNIFICANT WEATHER AND/OR OBSTRUCTIONS TO VISIBILITY.

* - THESE STATIONS ARE NOT NWS STATIONS...THUS NOT UNDER NWS
QUALITY CONTROL.  THEY ALSO DO NOT REPORT WEATHER SUCH
AS PRECIPITATION OR FOG.

IAZ001>003-012>014-020>022-031>034-043>046-171000-
   NORTHWEST IOWA

CITY           SKY/WX    TMP DP  RH WIND       PRES   REMARKS
CARROLL *      CLOUDY    50  48  93 CALM      30.08S
CHEROKEE *     PTCLDY    46  46 100 CALM      30.11R
DENISON *      CLOUDY    50  50 100 CALM      30.08S
LE MARS *      CLEAR     46  45  93 MISG      30.12R
ORANGE CITY *  CLEAR     52  46  82 N3        30.11R
SHELDON *      CLOUDY    45  45 100 NW5       30.10R
SIOUX CITY     MOCLDY    50  45  83 CALM      30.11R
SPENCER        PTCLDY    46  42  86 CALM      30.10S
STORM LAKE *   CLEAR     57  46  67 N5        30.11R
$$

IAZ055>058-069>071-079>083-090>094-171000-
   SOUTHWEST IOWA

CITY           SKY/WX    TMP DP  RH WIND       PRES   REMARKS
ATLANTIC *     CLEAR     48  48 100 N5        30.09R
AUDUBON *      CLEAR     46  45  93 CALM      30.10S
CLARINDA *     PTCLDY    52  52 100 N6        30.09S
COUNCIL BLFS * CLOUDY    55  54  94 N7        30.08S
CRESTON *      PTCLDY    55  52  88 CALM      30.09R
HARLAN  *      FOG       52  52 100 N6        30.12S VSB 1/4
LAMONI         CLEAR     58  51  78 NE3       30.07S
RED OAK *      CLEAR     52  50  93 CALM      30.08S
SHENANDOAH *   MOCLDY    55  52  88 CALM      30.07S
$$

IAZ047>049-059>061-072>074-084-171000-
   CENTRAL IOWA

CITY           SKY/WX    TMP DP  RH WIND       PRES   REMARKS
AMES           PTCLDY    50  46  86 NW3       30.08R
ANKENY *       CLEAR     48  48 100 CALM      30.08S
CHARITON *     CLOUDY    59  52  77 E3        30.07S
DES MOINES     PTCLDY    56  49  77 CALM      30.08S
GRINNELL*      PTCLDY    57  50  77 CALM      30.08R
KNOXVILLE *    CLEAR     55  50  82 CALM      30.06R
MARSHALLTOWN   PTCLDY    52  48  86 CALM      30.07S
PELLA *        PTCLDY    52  52 100 N3        30.08S
PERRY *          N/A     50  46  87 CALM      30.08S
$$

IAZ004>006-015-016-023>025-035-036-171000-
   NORTH CENTRAL IOWA

CITY           SKY/WX    TMP DP  RH WIND       PRES   REMARKS
ALGONA *       CLEAR     52  48  87 W5        30.09S
CLARION *      CLEAR     48  46  93 CALM      30.08S
ESTHERVILLE    CLEAR     46  41  82 NW6       30.08F
FORT DODGE *   PTCLDY    48  45  87 CALM      30.08S
MASON CITY     CLEAR     47  44  90 W5        30.09F
FOREST CITY *  CLEAR     43  43 100 CALM      30.08S
IOWA FALLS *     N/A     50  45  81 CALM      30.09R
$$

IAZ007>011-017>019-026>030-037>042-050>054-066-171000-
   NORTHEAST IOWA

CITY           SKY/WX    TMP DP  RH WIND       PRES   REMARKS
CEDAR RAPIDS   CLEAR     49  46  90 CALM      30.06F
CHARLES CITY * CLEAR     52  48  87 CALM      30.07F
CLINTON *      CLEAR     48  39  71 NW7       30.10F
DECORAH *      CLOUDY    55  45  67 CALM      30.06F
DUBUQUE        MOCLDY    54  44  69 SW3       30.08F
MONTICELLO *   MOCLDY    52  50  93 CALM      30.07F
OELWEIN *      CLEAR     52  46  82 CALM      30.07F
WATERLOO       PTCLDY    49  45  86 CALM      30.07F
$$

IAZ064-065-067-068-078-171000-
   EAST CENTRAL IOWA

CITY           SKY/WX    TMP DP  RH WIND       PRES   REMARKS
DAVENPORT      CLEAR     49  41  74 NW8       30.08F
IOWA CITY      CLEAR     49  46  90 CALM      30.08F
MT. PLEASANT * CLEAR     52  48  87 CALM      30.07S
MUSCATINE *    CLEAR     52  46  82 NE5       30.07F
QUAD CITIES    CLEAR     47  41  80 SE3       30.07F
$$

IAZ062-063-075>077-085>089-095>099-171000-
   SOUTHEAST IOWA

CITY           SKY/WX    TMP DP  RH WIND       PRES   REMARKS
BURLINGTON     CLEAR     55  48  77 CALM      30.05F
FAIRFIELD *    PTCLDY    52  46  82 NE7       30.07S
FORT MADISON * CLEAR     54  48  82 CALM      30.07S
KEOKUK *       CLEAR     52  50  93 CALM      30.04F
OSKALOOSA *      N/A     52  48  87 SE3       30.07S
CENTERVILLE *  CLEAR     50  50 100 CALM      30.08S
OTTUMWA        CLOUDY    57  52  83 E5        30.06F
WASHINGTON *   CLEAR     55  52  88 NE3       30.06F
$$

ABBREVIATIONS USED IN REMARKS
   TC - TEMPERATURES IN CELSIUS
  WCI - WIND CHILL INDEX
   HX - HEAT INDEX
  VSB - VISIBILITY
$$




USA.gov is the U.S. government's official web portal to all federal, state and local government web resources and services.